Regional Weather Roundup
Issued by NWS

Home | Current Version | Previous Version | Text Only | Print | Product List | Glossary On
Versions: 1 2 3 4 5 6 7 8 9 10 11 12 13 14 15 16 17 18 19 20 21 22 23 24 25 26 27 28 29 30 31 32 33 34 35 36 37 38 39 40 41 42
000
ASUS45 KBOU 021507
RWRCO

WEATHER ROUNDUP FOR COLORADO
NATIONAL WEATHER SERVICE DENVER/BOULDER CO
900 AM MDT THU OCT 02 2014

NOTE: "FAIR" INDICATES FEW OR NO CLOUDS BELOW 12000 FEET WITH NO
SIGNIFICANT WEATHER AND/OR OBSTRUCTIONS TO VISIBILITY.

COZ001>005-013-030-031-021600-
...NORTHWEST COLORADO...

CITY           SKY/WX    TMP DP  RH WIND       PRES   REMARKS
CRAIG          PTSUNNY   34  33  96 CALM      30.31S
HAYDEN         FAIR      36  30  80 NE3       30.30R
MEEKER         CLOUDY    34  33  96 S3        30.33R
MOUNT WERNER   NOT AVBL
STEAMBOAT SPGS CLOUDY    35  32  89 CALM      30.31R
WALDEN         FAIR      34  28  80 CALM      30.25S
$$

COZ006>008-011-021600-
...WEST CENTRAL VALLEYS...

CITY           SKY/WX    TMP DP  RH WIND       PRES   REMARKS
GRAND JUNCTION FAIR      42  39  89 S7        30.31R
MONTROSE       FAIR      42  38  85 CALM      30.33R
EAGLE          MOSUNNY   37  37 100 CALM      30.34R
RIFLE          FAIR      38  36  92 CALM      30.32S
DELTA          FLURRIES  44  39  82 CALM      30.32S
NUCLA          FAIR      41  32  70 CALM      30.34R
$$

COZ017>023-064>068-021600-
...SOUTHWEST COLORADO...

CITY           SKY/WX    TMP DP  RH WIND       PRES   REMARKS
DURANGO        FAIR      41  32  70 NE5       30.25R
CORTEZ         FAIR      45  31  58 E6        30.25F
PAGOSA SPRINGS FAIR      43  22  42 CALM      30.26R
TELLURIDE      FAIR     N/A N/A N/A CALM      30.31S
WOLF CREEK PAS NOT AVBL
$$

COZ009-010-012-014-032>034-037-058>063-021600-
...CENTRAL COLORADO...

CITY           SKY/WX    TMP DP  RH WIND       PRES   REMARKS
ASPEN          FAIR      35  30  82 NW3       30.32R
BUENA VISTA    FAIR      40  18  41 NW22G32   30.24S
COPPER MTN     CLOUDY    23  18  80 W22       30.33R HAZE    WCI   8
BERTHOUD PASS  CLOUDY    14  12  92 N16G35    30.28R WCI  -2
COTTONWOOD PAS FAIR      34  16  47 NW6G20    30.27S WCI  29
GUNNISON       FAIR      36  28  75 CALM      30.33R
KREMMLING      CLOUDY    37  28  70 W10       30.32R
LEADVILLE      CLOUDY    27  17  66 N14       30.29R WCI  16
MONARCH PASS     N/A     19  16  86 MISG      30.41R
SALIDA         FAIR      43  22  44 NW9       30.32S
SUNLIGHT       FOG      N/A N/A N/A N3        30.36R VSB 3/4
WILKERSON PASS NOT AVBL
$$

COZ069>075-021600-
...SAN LUIS VALLEY/SANGRE DE CRISTO MOUNTAINS...

CITY           SKY/WX    TMP DP  RH WIND       PRES   REMARKS
ALAMOSA        FAIR      43  21  41 NW15G21   30.24R
LA VETA PASS   NOT AVBL
SAGUACHE       FAIR      37  23  56 NW21G26   30.26R
$$

COZ035-036-038>040-021600-
...NORTHERN COLORADO FRONT RANGE...

CITY           SKY/WX    TMP DP  RH WIND       PRES   REMARKS
DENVER INTL AP FAIR      47  39  74 S8        30.14F
DMNS CITY PARK   N/A     46  38  73 S7        30.14S
AURORA         MOSUNNY   44  39  81 S8        30.16F
FRONT RANGE AP MOSUNNY   48  41  76 SW7       30.16S
ERIE MUNI ARPT FAIR      48  41  77 S6        30.13S
BOULDER MUN AP FAIR      45  39  81 CALM      30.13S
CENTENNIAL     FAIR      45  35  68 SW7       30.15F
BROOMFIELD     MOSUNNY   46  41  81 CALM      30.14F
FORT COLLINS   FAIR      45  41  87 S3        30.15S
LONGMONT       FAIR      49  41  75 CALM      30.15S
$$

COZ041-046-047-076>085-087-088-021600-
...PIKES PEAK/PALMER DIVIDE AND SOUTHERN FOOTHILLS...

CITY           SKY/WX    TMP DP  RH WIND       PRES   REMARKS
COLO. SPRINGS  FAIR      49  28  44 NW8       30.18R
A. F. ACADEMY  FAIR      44  27  50 N10       30.17S
ELLICOTT       NOT AVBL
FALCON         FAIR      44  28  53 NW7       30.19S
FORT CARSON    NOT AVBL
LIMON          FAIR      46  38  73 N14G25    30.14R
MONUMENT HILL  FAIR      39  34  81 W6        30.17S
TRINIDAD       CLOUDY    47  36  65 W7        30.20R
$$

COZ042>045-048>051-090-091-021600-
...NORTHEAST COLORADO...

CITY           SKY/WX    TMP DP  RH WIND       PRES   REMARKS
GREELEY ARPT   FAIR      46  37  71 CALM      30.15S
AKRON          FAIR      48  40  73 NW12      30.11S
BURLINGTON     FAIR      49  42  77 N13G23    30.09S
WRAY           FAIR      52  44  76 NW9       30.08S
STERLING       FAIR      52  43  71 NW14      30.10R
HOLYOKE        FAIR      54  45  71 NW10      30.08S
FORT MORGAN    FAIR      49  35  58 NW14G20   30.13S
$$

COZ086-089-092>099-021600-
...SOUTHEAST COLORADO...

CITY           SKY/WX    TMP DP  RH WIND       PRES   REMARKS
PUEBLO         FAIR      52  36  54 S5        30.16S
LA JUNTA       FAIR      54  38  54 NW12      30.15R
LAMAR          FAIR      54  42  64 N14       30.10S
SPRINGFIELD      N/A     52  38  58 N23G32    30.10R
$$


USA.gov is the U.S. government's official web portal to all federal, state and local government web resources and services.